Showing default

GITAI-SC1, 62388

Orbit data source: Space-Track

GITAI-SC1, 62388 is a payload satellite owned by GITAI USA (US) in LEO that was launched on Sat, 21 Dec 2024 UTC via an FALCON 9 launch vehicle from the Air Force Western Test Range (AFWTR). Payload-class satellites include a variety of spacecraft equipped with specific instruments for various scientific and technological missions. These include communications satellites like Starlink; space stations such as the ISS; scientific satellites like the Hubble; Earth observation satellites from companies like Planet Labs, Umbra, and HawkEye 360; GPS; miniature CubeSats for education and research; and military/defense satellites.

Loading next visibility...
Identifier
62388, 2024-247M
Orbit
LEO
Country
Flag of USUS
Related business
Manufacturer
GITAI USA
Mission
Operational Commercial Technology
Bus & Motor
CUBESAT 16U, Unknown motor
Mass
20 kg wet, 20 kg dry
Launch date (UTC)
2024-12-21 (1 year ago)
Launch vehicle
FALCON 9
Launch site
Air Force Western Test Range (AFWTR)
Object type
Payload
Rocket body
Debris
Shape & HBR
Box, 0.2 m
Radar Cross Section
0.100 m², Medium (>0.1 m² and < 1m²)

Expand to show TLE details & history
Last TLE update: 1 day ago

TLE from 1 day ago
0 GITAI-SC1
1 62388U 24247M   26093.11170873  .00011532  00000-0  52841-3 0  9999
2 62388  45.0030 357.3541 0000552 279.1445  80.9372 15.20600349 71303
Epoch: 2026-04-03T02:40Z
TLE epoch observation values (Epoch: 2026-04-03T02:40:51.634Z)
Latitude
-0.00008°
Longitude
125.68836°
Altitude
503.968 km
Speed
7.614 km/s
True Right ascension
23h 49m 24s
True Declination
0° 00' 00"
Sunlit
Object was in daylight at epoch
Visualization orbit readout
Latitude
Unknown
Longitude
Unknown
Altitude
Unknown
Speed
Unknown
Apparent Right ascension
Unknown
Apparent Declination
Unknown
Sunlit
N/A
Visualization observer readout
Local Sidereal Time
19:10:54
Azimuth
Unknown
Elevation
Unknown
Doppler factor
Unknown
Orbital elements
Apogee altitude
506.012 km
Perigee altitude
505.252 km
Semi-major axis
6,883.769 km
Eccentricity
0.00006
Inclination
45.003°
RAAN
357.3541°
Arg. of periapsis
279.1445°
True anomaly
80.94345°
Mean anomaly
80.9372°
Eccentric anomaly
80.94032°
Mean motion
3.80018 °/min
Orbital period
94.73 mins
BSTAR
0.00052841
Loading maneuver chart data...
Computing Atmospheric mass density...
Loading historical data...
Loading historical data...
Loading historical data...
Loading historical data...
Loading historical data...
Loading historical data...
Loading historical data...

Documentation

Showing up to 5 results
|